Weather History for Dunkirk, NY

Change the Weather History Date:

Friday, December 27, 2013

  Actual Average Record
Temperature  
Mean Temperature 31 °F -  
Max Temperature 36 °F 31 °F 64 °F (2008)
Min Temperature 26 °F 20 °F 4 °F (1965)
Degree Days  
Heating Degree Days 34    
Moisture  
Dew Point 25 °F    
Average Humidity 78    
Maximum Humidity 87    
Minimum Humidity 67    
Precipitation  
Precipitation 0.00 in - - ()
Sea Level Pressure  
Sea Level Pressure 30.26 in    
Wind  
Wind Speed 11 mph (SW)    
Max Wind Speed 20 mph    
Max Gust Speed 23 mph    
Visibility 8 miles    
Events Snow    
Averages and records for this station are not official NWS values.
T = Trace of Precipitation, MM = Missing Value Source: NWS Daily Summary

Daily Weather History Graph

Daily Weather History Graph

Search for Another Location

Airport:

Trip Planner

Search our weather history database for the weather conditions in past years. The results will help you decide how hot, cold, wet, or windy it might be!

Date:

Astronomy

Dec. 27, 2013 Rise Set
Actual Time 7:45 AM EST 4:50 PM EST
Civil Twilight 7:13 AM EST 5:22 PM EST
Nautical Twilight 6:38 AM EST 5:58 PM EST
Astronomical Twilight 6:04 AM EST 6:32 PM EST
Moon 2:11 AM EST (12/27) 1:04 PM EST (12/27)
Length of Visible Light 10h 09m
Length of Day
9h 05m
Waning Crescent, 28% of the Moon is Illuminated
Dec 27
Waning Crescent
Jan 1
New
Jan 7
First Quarter
Jan 15
Full
Jan 24
Last Quarter

Hourly Weather History & Observations

Time (EST) Temp. Windchill Dew Point Humidity Pressure Visibility Wind Dir Wind Speed Gust Speed Precip Events Conditions
12:53 AM 27.0 °F 18.7 °F 19.0 °F 72% 30.30 in 10.0 mi SSW 8.1 mph - N/A   Overcast
1:53 AM 26.1 °F 18.4 °F 18.0 °F 71% 30.30 in 10.0 mi South 6.9 mph - N/A   Overcast
2:53 AM 26.1 °F 16.2 °F 17.1 °F 69% 30.30 in 10.0 mi South 10.4 mph 19.6 mph N/A   Overcast
3:53 AM 26.1 °F 15.0 °F 17.1 °F 69% 30.28 in 8.0 mi SSW 12.7 mph 20.7 mph 0.00 in Snow Light Snow
4:53 AM 26.1 °F 15.6 °F 18.0 °F 71% 30.26 in 6.0 mi South 11.5 mph 20.7 mph 0.00 in Snow Light Snow
5:53 AM 27.0 °F 15.2 °F 19.0 °F 72% 30.25 in 6.0 mi SSW 15.0 mph 21.9 mph 0.00 in Snow Light Snow
6:53 AM 27.0 °F 16.7 °F 19.0 °F 72% 30.26 in 7.0 mi SSW 11.5 mph 23.0 mph 0.00 in Snow Light Snow
7:31 AM 26.6 °F 17.5 °F 19.4 °F 74% 30.23 in 9.0 mi SSW 9.2 mph 20.7 mph 0.00 in Snow Light Snow
7:53 AM 27.0 °F 18.0 °F 21.0 °F 78% 30.26 in 9.0 mi SSW 9.2 mph - 0.00 in   Overcast
8:53 AM 28.9 °F 19.8 °F 23.0 °F 78% 30.27 in 8.0 mi SW 10.4 mph 18.4 mph 0.00 in   Overcast
9:33 AM 30.2 °F 20.8 °F 26.6 °F 86% 30.25 in 3.0 mi SW 11.5 mph - 0.00 in Snow Light Snow
9:51 AM 30.2 °F 21.3 °F 26.6 °F 86% 30.26 in 2.0 mi SW 10.4 mph - 0.00 in Snow Light Snow
9:53 AM 30.9 °F 20.7 °F 27.0 °F 85% 30.29 in 1.8 mi SW 13.8 mph - 0.00 in Snow Light Snow
10:05 AM 30.2 °F 19.3 °F 26.6 °F 86% 30.27 in 2.5 mi SW 15.0 mph 20.7 mph 0.00 in Snow Light Snow
10:12 AM 30.2 °F 20.8 °F 26.6 °F 86% 30.27 in 3.0 mi WSW 11.5 mph 20.7 mph 0.00 in Snow Light Snow
10:22 AM 32.0 °F 23.6 °F 28.4 °F 87% 30.27 in 3.0 mi WSW 10.4 mph - 0.00 in Snow Light Snow
10:33 AM 32.0 °F 23.6 °F 28.4 °F 87% 30.27 in 3.0 mi SW 10.4 mph - 0.00 in Snow Light Snow
10:40 AM 32.0 °F 25.6 °F 28.4 °F 87% 30.27 in 3.0 mi SW 6.9 mph - 0.00 in Snow Light Snow
10:49 AM 32.0 °F 23.6 °F 28.4 °F 87% 30.27 in 5.0 mi WSW 10.4 mph - 0.00 in   Overcast
10:53 AM 33.1 °F 26.1 °F 28.0 °F 82% 30.30 in 6.0 mi WSW 8.1 mph - 0.00 in   Haze
11:53 AM 33.1 °F 25.5 °F 28.0 °F 82% 30.29 in 8.0 mi West 9.2 mph 18.4 mph N/A   Overcast
12:13 PM 33.8 °F 25.3 °F 28.4 °F 81% 30.26 in 9.0 mi West 11.5 mph 18.4 mph N/A   Overcast
12:53 PM 33.1 °F 24.9 °F 28.0 °F 82% 30.27 in 10.0 mi West 10.4 mph 18.4 mph N/A   Overcast
1:31 PM 33.8 °F 25.3 °F 28.4 °F 81% 30.24 in 9.0 mi WSW 11.5 mph - N/A   Overcast
1:53 PM 34.0 °F 26.0 °F 28.0 °F 79% 30.27 in 10.0 mi WSW 10.4 mph - N/A   Overcast
2:10 PM 33.8 °F 25.3 °F 28.4 °F 81% 30.24 in 10.0 mi WSW 11.5 mph 20.7 mph N/A   Overcast
2:53 PM 33.1 °F 23.4 °F 28.9 °F 85% 30.27 in 8.0 mi SW 13.8 mph 20.7 mph N/A   Overcast
3:26 PM 33.8 °F 25.3 °F 28.4 °F 81% 30.24 in 10.0 mi SW 11.5 mph - N/A   Overcast
3:53 PM 34.0 °F 26.0 °F 28.0 °F 79% 30.27 in 10.0 mi SW 10.4 mph 21.9 mph N/A   Overcast
4:53 PM 34.0 °F 25.0 °F 28.0 °F 79% 30.28 in 9.0 mi SW 12.7 mph - N/A   Overcast
5:53 PM 33.1 °F 27.7 °F 27.0 °F 78% 30.28 in 10.0 mi SW 5.8 mph - N/A   Scattered Clouds
6:53 PM 30.0 °F 25.2 °F 25.0 °F 82% 30.27 in 9.0 mi SSW 4.6 mph - N/A   Partly Cloudy
7:53 PM 33.1 °F 24.9 °F 25.0 °F 72% 30.24 in 10.0 mi SSW 10.4 mph 21.9 mph N/A   Clear
8:53 PM 35.1 °F 25.5 °F 25.0 °F 67% 30.20 in 10.0 mi SSW 15.0 mph 23.0 mph N/A   Clear
9:53 PM 35.1 °F 24.5 °F 25.0 °F 67% 30.19 in 10.0 mi SSW 18.4 mph 23.0 mph N/A   Clear
10:53 PM 36.0 °F 26.0 °F 26.1 °F 67% 30.16 in 10.0 mi SSW 17.3 mph 23.0 mph N/A   Clear
11:53 PM 35.1 °F 24.1 °F 26.1 °F 70% 30.12 in 10.0 mi SSW 19.6 mph - N/A   Clear